Hourly Data Report for September 22, 2017

All times are specified in Local Standard Time (LST). Add 1 hour to adjust for Daylight Saving Time where and when it is observed.

POND INLET A
NUNAVUT

72°41'22.000" N
77°58'08.000" W
61.60 m
2403206
71095
YIO

Download Data

Hourly Data (September 2017)
Hourly Data Report for September 22, 2017
Temp Definition
°C
Dew Point Temp Definition
°C
Rel Hum Definition
%
Wind Dir Definition
10's deg

Wind Spd Definition
km/h
Visibility Definition
km
Stn Press Definition
kPa
Hmdx Definition


Wind Chill Definition


Weather Definition


TIME
00:00 Legend Double Dagger -5.6 -7.0 90 16 17 16.1 101.15   -12 LegendNANA
01:00 Legend Double Dagger -5.4 -6.9 89 16 17 16.1 101.13   -11 LegendNANA
02:00 Legend Double Dagger -5.3 -6.8 89 16 15 16.1 101.11   -11 LegendNANA
03:00 Legend Double Dagger -5.0 -6.5 89 16 9 16.1 101.09   -9 LegendNANA
04:00 Legend Double Dagger -4.5 -6.1 89 17 11 16.1 101.07   -9 LegendNANA
05:00 Legend Double Dagger -4.7 -6.4 88 16 8 16.1 101.05   -8 LegendNANA
06:00 Legend Double Dagger -4.8 -6.5 88 17 11 16.1 101.03   -9 LegendNANA
07:00 Legend Double Dagger -4.8 -6.3 89 16 11 16.1 101.01   -9 LegendNANA
08:00 Legend Double Dagger -4.5 -6.4 87 17 13 16.1 101.00   -10 LegendNANA
09:00 Legend Double Dagger -3.4 -5.1 88 16 4 16.1 100.96   -5 LegendNANA
10:00 Legend Double Dagger -3.4 -5.4 86 17 9 16.1 100.93   -7 LegendNANA
11:00 Legend Double Dagger -3.5 -5.7 85 18 13 16.1 100.91   -8 LegendNANA
12:00 Legend Double Dagger -3.3 -5.6 84 16 9 16.1 100.89   -7 LegendNANA
13:00 Legend Double Dagger -3.3 -5.6 84 16 13 16.1 100.86   -8 LegendNANA
14:00 Legend Double Dagger -3.8 -6.1 84 17 17 16.1 100.85   -10 LegendNANA
15:00 Legend Double Dagger -3.9 -5.9 86 17 11 16.1 100.83   -8 LegendNANA
16:00 Legend Double Dagger -4.1 -6.0 87 15 15 16.1 100.83   -9 LegendNANA
17:00 Legend Double Dagger -4.3 -6.0 88 15 15 16.1 100.82   -10 LegendNANA
18:00 Legend Double Dagger -3.7 -5.4 88 18 9 16.1 100.81   -7 LegendNANA
19:00 Legend Double Dagger -3.5 -5.2 88   0 16.1 100.77     LegendNANA
20:00 Legend Double Dagger -3.4 -5.1 88 28 4 16.1 100.75   -5 LegendNANA
21:00 Legend Double Dagger -3.4 -5.1 88 10 4 16.1 100.72   -5 LegendNANA
22:00 Legend Double Dagger -3.3 -4.4 92 10 4 16.1 100.70   -5 LegendNANA
23:00 Legend Double Dagger -3.3 -4.7 90 17 5 16.1 100.68   -5 LegendNANA

Notes on Data Quality.

Legend

  • E = Estimated
  • M = Missing
  • NA = Not Available
  • ‡ = Partner data that is not subject to review by the National Climate Archives
Date modified: